contact:dominique.lefevre@mio.osupytheas.fr, maurice.libes@osupytheas.fr, didier.mallarino@osupytheas.fr
Project:EMSO http://www.emso-fr.org/EMSO-France
Depth: 2436.0 m
Title:EMSO Ligure Ouest : Data MII capteur AQUADOPP
Date,Latitude,Longitude,X_East,Y_North,Z_Up,Amplitude_X,Amplitude_Y,Amplitude_Z,Batterie,SoundSpeed,Heading,Pitch,Roll,Pressure,TIS,Speed,Direction
, degrees North, degrees East, m.s-1, m.s-1,m.s-1, 1, 1, 1, Volt, m.s-1, degree, degree, degree, dbar, degree_C, m.s-1, degree
2021-02-17T00:04:03,42.805,6.029,-0.002,-0.009,0.022,106.0,105.0,102.0,13.3,1505.2,327.8,-0.8,1.8,2470.514,13.29,0.009,192.5
2021-02-17T00:07:03,42.805,6.029,-0.018,0.011,0.024,105.0,106.0,103.0,13.4,1505.2,323.0,-0.7,1.8,2470.479,13.29,0.021,301.4
2021-02-17T00:10:03,42.805,6.029,-0.011,-0.008,0.026,105.0,106.0,104.0,13.3,1505.2,326.0,-0.7,1.8,2470.511,13.29,0.013,234.0
2021-02-17T00:13:03,42.805,6.029,-0.015,-0.004,-0.015,107.0,106.0,102.0,13.4,1505.2,326.4,-0.7,1.8,2470.463,13.29,0.015,255.1
2021-02-17T00:16:03,42.805,6.029,-0.015,0.005,0.012,104.0,105.0,103.0,13.3,1505.2,326.4,-0.8,1.8,2470.474,13.29,0.015,288.4
2021-02-17T00:19:03,42.805,6.029,-0.028,-0.01,0.009,104.0,105.0,104.0,13.4,1505.2,323.0,-0.8,1.8,2470.445,13.29,0.029,250.4
2021-02-17T00:22:03,42.805,6.029,-0.029,0.001,0.005,106.0,105.0,104.0,13.4,1505.2,323.2,-0.8,1.8,2470.453,13.29,0.029,272.0
2021-02-17T00:25:03,42.805,6.029,-0.029,-0.024,0.02,104.0,105.0,103.0,13.4,1505.2,325.8,-0.7,1.8,2470.468,13.29,0.037,230.4
2021-02-17T00:28:03,42.805,6.029,-0.019,-0.019,0.02,104.0,104.0,104.0,13.4,1505.2,326.3,-0.8,1.8,2470.437,13.29,0.026,225.0
2021-02-17T00:31:03,42.805,6.029,-0.035,-0.006,-0.004,106.0,106.0,102.0,13.3,1505.2,324.4,-0.7,1.8,2470.5,13.29,0.035,260.3
2021-02-17T00:34:03,42.805,6.029,-0.023,-0.015,0.002,105.0,104.0,104.0,13.4,1505.2,327.7,-0.7,1.8,2470.463,13.29,0.027,236.9
2021-02-17T00:37:03,42.805,6.029,-0.015,-0.007,0.018,105.0,105.0,103.0,13.4,1505.2,325.2,-0.8,1.8,2470.44,13.29,0.016,245.0
2021-02-17T00:40:03,42.805,6.029,-0.007,-0.017,-0.02,105.0,105.0,102.0,13.4,1505.2,323.5,-0.7,1.8,2470.458,13.29,0.018,202.4
2021-02-17T00:43:03,42.805,6.029,-0.027,0.005,-0.002,105.0,105.0,103.0,13.4,1505.2,323.2,-0.7,1.8,2470.419,13.29,0.027,280.5
2021-02-17T00:46:03,42.805,6.029,-0.023,-0.015,0.006,105.0,104.0,103.0,13.4,1505.2,326.2,-0.8,1.8,2470.428,13.29,0.027,236.9
2021-02-17T00:49:03,42.805,6.029,-0.03,0.01,0.01,104.0,105.0,103.0,13.4,1505.2,327.1,-0.8,1.8,2470.405,13.29,0.031,288.4
2021-02-17T00:52:03,42.805,6.029,-0.015,-0.012,0.013,106.0,103.0,104.0,13.4,1505.2,323.8,-0.7,1.8,2470.42,13.29,0.019,231.3
2021-02-17T00:55:03,42.805,6.029,-0.002,-0.01,0.001,106.0,104.0,104.0,13.4,1505.2,325.4,-0.7,1.9,2470.429,13.29,0.01,191.3
2021-02-17T00:58:03,42.805,6.029,0.006,-0.017,0.0,105.0,105.0,103.0,13.4,1505.2,323.3,-0.7,1.8,2470.401,13.29,0.018,160.6
2021-02-17T01:04:03,42.805,6.029,-0.024,0.011,0.012,104.0,105.0,103.0,13.4,1505.2,328.4,-0.8,1.9,2470.433,13.29,0.026,294.6
2021-02-17T01:07:03,42.805,6.029,-0.002,-0.007,0.015,105.0,103.0,102.0,13.4,1505.2,323.3,-0.7,1.9,2470.436,13.29,0.007,195.9
2021-02-17T01:10:03,42.805,6.029,-0.003,0.009,0.02,106.0,104.0,103.0,13.4,1505.2,323.5,-0.8,1.8,2470.435,13.29,0.009,341.6
2021-02-17T01:13:03,42.805,6.029,-0.031,-0.016,-0.015,104.0,105.0,105.0,13.4,1505.2,326.1,-0.8,1.8,2470.407,13.29,0.034,242.7
2021-02-17T01:16:03,42.805,6.029,-0.016,-0.038,-0.022,103.0,105.0,104.0,13.4,1505.2,324.4,-0.8,1.8,2470.439,13.29,0.041,202.8
2021-02-17T01:19:03,42.805,6.029,-0.026,-0.008,0.017,105.0,104.0,102.0,13.4,1505.2,325.8,-0.8,1.8,2470.456,13.29,0.027,252.9
2021-02-17T01:22:03,42.805,6.029,0.0,-0.007,-0.023,105.0,104.0,102.0,13.4,1505.2,323.7,-0.8,1.9,2470.417,13.29,0.007,180.0
2021-02-17T01:25:03,42.805,6.029,-0.022,-0.005,0.001,105.0,105.0,103.0,13.3,1505.2,324.1,-0.8,1.8,2470.443,13.29,0.022,257.2
2021-02-17T01:28:03,42.805,6.029,-0.001,0.0,-0.001,106.0,104.0,104.0,13.4,1505.2,327.0,-0.7,1.8,2470.402,13.29,0.001,270.0
2021-02-17T01:31:03,42.805,6.029,-0.01,-0.018,0.003,105.0,105.0,103.0,13.3,1505.2,326.1,-0.8,1.8,2470.433,13.29,0.02,209.1
2021-02-17T01:34:03,42.805,6.029,-0.027,0.011,0.021,106.0,105.0,104.0,13.4,1505.2,324.5,-0.7,1.8,2470.445,13.29,0.029,292.2
2021-02-17T01:37:03,42.805,6.029,-0.01,0.028,0.004,104.0,106.0,103.0,13.3,1505.2,323.8,-0.8,1.8,2470.419,13.29,0.029,340.4
2021-02-17T01:40:03,42.805,6.029,-0.014,0.004,0.005,105.0,105.0,103.0,13.4,1505.2,325.5,-0.7,1.8,2470.442,13.29,0.014,285.9
2021-02-17T01:43:03,42.805,6.029,-0.016,-0.017,0.008,107.0,104.0,104.0,13.4,1505.2,327.1,-0.8,1.8,2470.441,13.29,0.023,223.3
2021-02-17T01:46:03,42.805,6.029,-0.025,-0.021,-0.009,104.0,105.0,103.0,13.4,1505.2,324.2,-0.7,1.8,2470.381,13.29,0.032,230.0
2021-02-17T01:49:03,42.805,6.029,-0.012,-0.006,0.007,107.0,105.0,103.0,13.3,1505.2,327.9,-0.8,1.8,2470.406,13.29,0.013,243.4
2021-02-17T01:52:03,42.805,6.029,-0.024,0.002,0.025,106.0,103.0,103.0,13.3,1505.2,323.4,-0.7,1.8,2470.401,13.29,0.024,274.8
2021-02-17T01:55:03,42.805,6.029,-0.02,-0.019,0.016,105.0,105.0,103.0,13.4,1505.2,327.5,-0.7,1.8,2470.385,13.29,0.027,226.5
2021-02-17T01:58:03,42.805,6.029,-0.017,-0.012,0.003,107.0,105.0,104.0,13.4,1505.2,325.0,-0.8,1.8,2470.361,13.29,0.02,234.8
2021-02-17T02:04:03,42.805,6.029,-0.028,-0.017,-0.028,106.0,105.0,104.0,13.3,1505.2,327.2,-0.8,1.8,2470.395,13.29,0.032,238.7
2021-02-17T02:07:03,42.805,6.029,-0.012,-0.006,-0.021,105.0,106.0,103.0,13.4,1505.2,323.1,-0.8,1.8,2470.428,13.29,0.013,243.4
2021-02-17T02:10:03,42.805,6.029,-0.037,-0.034,-0.016,107.0,106.0,103.0,13.3,1505.2,326.8,-0.8,1.8,2470.447,13.29,0.05,227.4
2021-02-17T02:13:03,42.805,6.029,-0.013,-0.014,-0.001,107.0,105.0,104.0,13.4,1505.2,323.6,-0.7,1.8,2470.431,13.29,0.019,222.9
2021-02-17T02:16:03,42.805,6.029,-0.029,0.004,0.024,107.0,105.0,104.0,13.4,1505.2,324.5,-0.7,1.8,2470.355,13.29,0.029,277.8
2021-02-17T02:19:03,42.805,6.029,-0.019,0.009,0.016,105.0,105.0,103.0,13.4,1505.2,328.0,-0.7,1.8,2470.402,13.29,0.021,295.3
2021-02-17T02:22:03,42.805,6.029,-0.01,-0.013,-0.02,107.0,105.0,103.0,13.4,1505.2,323.6,-0.8,1.9,2470.413,13.29,0.016,217.6
2021-02-17T02:25:03,42.805,6.029,0.013,-0.011,0.006,106.0,106.0,103.0,13.4,1505.2,326.7,-0.7,1.8,2470.367,13.29,0.017,130.2
2021-02-17T02:28:03,42.805,6.029,-0.031,0.007,0.017,106.0,106.0,104.0,13.4,1505.2,324.6,-0.7,1.9,2470.426,13.29,0.031,282.7
2021-02-17T02:31:03,42.805,6.029,-0.026,0.0,0.023,108.0,107.0,103.0,13.4,1505.2,326.7,-0.7,1.8,2470.434,13.29,0.026,270.0
2021-02-17T02:34:03,42.805,6.029,-0.034,0.005,0.007,108.0,106.0,103.0,13.4,1505.2,327.3,-0.8,1.8,2470.397,13.29,0.034,278.4
2021-02-17T02:37:03,42.805,6.029,0.002,0.0,0.019,105.0,104.0,104.0,13.3,1505.2,327.6,-0.8,1.8,2470.399,13.29,0.002,90.0
2021-02-17T02:40:03,42.805,6.029,-0.022,0.007,0.026,106.0,107.0,103.0,13.3,1505.2,326.5,-0.8,1.8,2470.427,13.29,0.023,287.6
2021-02-17T02:43:03,42.805,6.029,-0.002,-0.025,0.036,106.0,105.0,103.0,13.3,1505.2,324.6,-0.8,1.9,2470.388,13.29,0.025,184.6
2021-02-17T02:46:03,42.805,6.029,-0.015,0.0,0.002,104.0,106.0,103.0,13.4,1505.2,326.8,-0.7,1.8,2470.406,13.29,0.015,270.0
2021-02-17T02:49:03,42.805,6.029,-0.012,-0.008,-0.015,107.0,106.0,103.0,13.4,1505.2,327.0,-0.8,1.8,2470.372,13.29,0.014,236.3
2021-02-17T02:52:03,42.805,6.029,0.001,-0.02,0.022,106.0,105.0,103.0,13.3,1505.2,326.1,-0.7,1.8,2470.385,13.29,0.02,177.1
2021-02-17T02:55:03,42.805,6.029,-0.021,-0.002,0.017,104.0,105.0,104.0,13.4,1505.2,326.7,-0.8,1.8,2470.363,13.29,0.021,264.6
2021-02-17T02:58:03,42.805,6.029,-0.013,-0.001,0.012,105.0,106.0,104.0,13.3,1505.2,326.3,-0.7,1.8,2470.378,13.29,0.013,265.6
2021-02-17T03:04:03,42.805,6.029,-0.006,0.005,0.027,105.0,105.0,105.0,13.4,1505.2,324.1,-0.8,1.8,2470.418,13.29,0.007,309.8
2021-02-17T03:07:03,42.805,6.029,0.003,-0.009,-0.001,106.0,105.0,102.0,13.4,1505.2,326.1,-0.7,1.9,2470.389,13.29,0.009,161.6
2021-02-17T03:10:03,42.805,6.029,-0.015,-0.007,-0.016,107.0,106.0,104.0,13.3,1505.2,327.8,-0.7,1.8,2470.405,13.29,0.016,245.0
2021-02-17T03:13:03,42.805,6.029,-0.01,-0.012,-0.008,107.0,106.0,104.0,13.3,1505.2,327.9,-0.8,1.8,2470.419,13.29,0.015,219.8
2021-02-17T03:16:03,42.805,6.029,-0.015,0.005,-0.002,107.0,105.0,104.0,13.3,1505.2,324.0,-0.8,1.8,2470.423,13.29,0.015,288.4
2021-02-17T03:19:03,42.805,6.029,-0.04,0.004,0.014,108.0,107.0,103.0,13.4,1505.2,324.6,-0.7,1.8,2470.426,13.29,0.04,275.7
2021-02-17T03:22:03,42.805,6.029,-0.015,-0.021,0.008,107.0,107.0,104.0,13.3,1505.2,326.6,-0.7,1.8,2470.372,13.29,0.025,215.5
2021-02-17T03:25:03,42.805,6.029,-0.003,0.002,0.009,107.0,107.0,104.0,13.3,1505.2,326.6,-0.8,1.8,2470.376,13.29,0.003,303.7
2021-02-17T03:28:03,42.805,6.029,-0.012,0.016,0.017,107.0,106.0,103.0,13.4,1505.2,325.2,-0.7,1.8,2470.356,13.29,0.02,323.1
2021-02-17T03:31:03,42.805,6.029,-0.006,-0.002,-0.01,107.0,107.0,104.0,13.3,1505.2,327.4,-0.7,1.8,2470.382,13.29,0.006,251.6
2021-02-17T03:34:03,42.805,6.029,-0.006,-0.017,0.001,106.0,105.0,104.0,13.4,1505.2,327.5,-0.8,1.8,2470.379,13.29,0.018,199.4
2021-02-17T03:37:03,42.805,6.029,-0.004,-0.015,0.02,107.0,107.0,103.0,13.3,1505.2,324.7,-0.7,1.8,2470.389,13.29,0.015,194.9
2021-02-17T03:40:03,42.805,6.029,-0.005,-0.011,0.022,106.0,105.0,103.0,13.3,1505.2,325.0,-0.7,1.8,2470.404,13.29,0.012,204.4
2021-02-17T03:43:03,42.805,6.029,0.001,0.001,0.01,106.0,105.0,104.0,13.4,1505.2,324.5,-0.8,1.8,2470.38,13.29,0.001,45.0
2021-02-17T03:46:03,42.805,6.029,-0.026,-0.009,0.013,106.0,105.0,103.0,13.4,1505.2,325.3,-0.7,1.8,2470.409,13.29,0.027,250.9
2021-02-17T03:49:03,42.805,6.029,0.0,0.004,0.007,104.0,106.0,104.0,13.4,1505.2,328.1,-0.8,1.8,2470.408,13.29,0.004,0.0
2021-02-17T03:52:03,42.805,6.029,-0.016,0.018,0.011,104.0,105.0,103.0,13.3,1505.2,322.8,-0.7,1.8,2470.401,13.29,0.024,318.4
2021-02-17T03:55:03,42.805,6.029,-0.016,-0.004,0.018,107.0,105.0,103.0,13.4,1505.2,326.4,-0.7,1.8,2470.384,13.29,0.016,256.0
2021-02-17T03:58:03,42.805,6.029,-0.012,0.002,0.005,106.0,104.0,104.0,13.3,1505.2,324.1,-0.8,1.8,2470.38,13.29,0.012,279.5
2021-02-17T04:04:03,42.805,6.029,-0.028,0.0,-0.028,105.0,105.0,103.0,13.3,1505.2,325.7,-0.8,1.8,2470.392,13.28,0.028,270.0
2021-02-17T04:07:03,42.805,6.029,-0.012,0.01,0.017,106.0,105.0,103.0,13.4,1505.2,327.0,-0.7,1.8,2470.422,13.28,0.015,309.8
2021-02-17T04:10:03,42.805,6.029,-0.018,0.006,0.017,105.0,107.0,102.0,13.3,1505.2,323.2,-0.8,1.8,2470.386,13.29,0.018,288.4
2021-02-17T04:13:03,42.805,6.029,-0.01,-0.002,-0.013,105.0,104.0,102.0,13.4,1505.2,326.4,-0.7,1.8,2470.365,13.29,0.01,258.7
2021-02-17T04:16:03,42.805,6.029,-0.011,0.004,0.012,103.0,105.0,103.0,13.4,1505.2,327.0,-0.8,1.8,2470.442,13.29,0.011,290.0
2021-02-17T04:19:03,42.805,6.029,-0.022,-0.002,-0.01,105.0,105.0,102.0,13.4,1505.2,325.9,-0.8,1.8,2470.405,13.29,0.022,264.8
2021-02-17T04:22:03,42.805,6.029,-0.012,-0.028,-0.018,103.0,105.0,103.0,13.4,1505.2,325.9,-0.7,1.9,2470.415,13.29,0.03,203.2
2021-02-17T04:25:03,42.805,6.029,-0.012,-0.001,0.015,104.0,105.0,103.0,13.4,1505.2,325.0,-0.8,1.9,2470.386,13.29,0.012,265.2
2021-02-17T04:28:03,42.805,6.029,-0.011,-0.029,0.011,106.0,106.0,103.0,13.4,1505.2,327.7,-0.8,1.8,2470.401,13.29,0.031,200.8
2021-02-17T04:31:03,42.805,6.029,-0.025,0.012,-0.001,106.0,105.0,104.0,13.4,1505.2,326.0,-0.7,1.8,2470.35,13.29,0.027,295.6
2021-02-17T04:34:03,42.805,6.029,-0.015,-0.014,0.019,104.0,105.0,103.0,13.4,1505.2,323.5,-0.8,1.8,2470.384,13.29,0.02,227.0
2021-02-17T04:37:03,42.805,6.029,-0.021,-0.002,0.003,107.0,106.0,103.0,13.4,1505.2,327.0,-0.7,1.8,2470.359,13.29,0.021,264.6
2021-02-17T04:40:03,42.805,6.029,-0.024,-0.017,0.014,108.0,108.0,104.0,13.4,1505.2,326.3,-0.7,1.8,2470.352,13.29,0.029,234.7
2021-02-17T04:43:03,42.805,6.029,-0.007,0.01,-0.01,106.0,107.0,104.0,13.4,1505.2,326.2,-0.8,1.8,2470.367,13.29,0.012,325.0
2021-02-17T04:46:03,42.805,6.029,-0.015,-0.005,-0.01,107.0,105.0,105.0,13.4,1505.2,326.9,-0.8,1.8,2470.38,13.29,0.015,251.6
2021-02-17T04:49:03,42.805,6.029,-0.014,-0.016,0.003,107.0,107.0,105.0,13.4,1505.2,327.4,-0.8,1.8,2470.352,13.29,0.021,221.2
2021-02-17T04:52:03,42.805,6.029,-0.014,0.007,0.026,107.0,107.0,104.0,13.4,1505.2,328.0,-0.8,1.9,2470.365,13.29,0.015,296.6
2021-02-17T04:55:03,42.805,6.029,-0.003,-0.019,-0.01,106.0,106.0,104.0,13.3,1505.2,328.1,-0.7,1.8,2470.359,13.29,0.019,189.0
2021-02-17T04:58:03,42.805,6.029,-0.012,-0.015,0.002,108.0,107.0,105.0,13.4,1505.2,328.0,-0.8,1.8,2470.412,13.29,0.019,218.7
2021-02-17T05:04:03,42.805,6.029,-0.031,0.007,0.026,107.0,107.0,104.0,13.4,1505.2,324.2,-0.7,1.8,2470.389,13.29,0.031,282.7
2021-02-17T05:07:03,42.805,6.029,-0.024,-0.017,-0.021,107.0,107.0,105.0,13.4,1505.2,327.7,-0.7,1.8,2470.401,13.29,0.029,234.7
2021-02-17T05:10:03,42.805,6.029,0.001,0.004,-0.012,107.0,106.0,104.0,13.4,1505.2,324.5,-0.8,1.8,2470.377,13.29,0.004,14.0
2021-02-17T05:13:03,42.805,6.029,0.0,0.004,-0.002,107.0,107.0,105.0,13.4,1505.2,326.6,-0.8,1.8,2470.37,13.29,0.004,0.0
2021-02-17T05:16:03,42.805,6.029,-0.017,0.0,0.026,106.0,107.0,104.0,13.4,1505.2,323.9,-0.8,1.8,2470.419,13.29,0.017,270.0
2021-02-17T05:19:03,42.805,6.029,0.0,0.01,-0.028,107.0,107.0,104.0,13.3,1505.2,326.3,-0.8,1.8,2470.366,13.29,0.01,0.0
2021-02-17T05:22:03,42.805,6.029,-0.02,0.011,0.015,107.0,106.0,103.0,13.4,1505.2,326.5,-0.7,1.8,2470.374,13.29,0.022,298.8
2021-02-17T05:25:03,42.805,6.029,-0.005,-0.018,-0.008,108.0,107.0,104.0,13.4,1505.2,328.3,-0.7,1.8,2470.382,13.29,0.018,195.5
2021-02-17T05:28:03,42.805,6.029,-0.007,-0.009,0.012,106.0,107.0,106.0,13.3,1505.2,323.0,-0.8,1.8,2470.377,13.29,0.011,217.9
2021-02-17T05:31:03,42.805,6.029,0.013,-0.005,0.024,110.0,106.0,105.0,13.3,1505.2,325.8,-0.7,1.8,2470.376,13.29,0.013,111.0
2021-02-17T05:34:03,42.805,6.029,0.013,-0.001,0.024,106.0,105.0,104.0,13.4,1505.2,326.0,-0.7,1.8,2470.349,13.29,0.013,94.4
2021-02-17T05:37:03,42.805,6.029,0.011,-0.009,0.014,108.0,106.0,105.0,13.4,1505.2,326.5,-0.8,1.8,2470.424,13.29,0.014,129.3
2021-02-17T05:40:03,42.805,6.029,-0.012,-0.001,0.03,108.0,107.0,104.0,13.3,1505.2,326.5,-0.7,1.9,2470.342,13.29,0.012,265.2
2021-02-17T05:43:03,42.805,6.029,-0.006,-0.009,0.011,106.0,106.0,104.0,13.4,1505.2,326.5,-0.7,1.8,2470.368,13.29,0.01,213.7
2021-02-17T05:46:03,42.805,6.029,-0.026,-0.011,0.011,106.0,105.0,103.0,13.4,1505.2,326.3,-0.7,1.8,2470.386,13.29,0.028,247.1
2021-02-17T05:49:03,42.805,6.029,-0.004,0.0,0.002,106.0,106.0,104.0,13.3,1505.2,326.4,-0.8,1.8,2470.382,13.29,0.004,270.0
2021-02-17T05:52:03,42.805,6.029,0.002,-0.006,0.008,106.0,106.0,104.0,13.3,1505.2,324.3,-0.8,1.8,2470.33,13.29,0.006,161.6
2021-02-17T05:55:03,42.805,6.029,0.002,0.006,-0.005,107.0,106.0,104.0,13.4,1505.2,323.6,-0.7,1.9,2470.401,13.29,0.006,18.4
2021-02-17T05:58:03,42.805,6.029,-0.029,-0.009,0.03,107.0,106.0,104.0,13.4,1505.2,325.8,-0.7,1.8,2470.366,13.29,0.03,252.8
2021-02-17T06:04:03,42.805,6.029,-0.011,-0.001,0.027,106.0,105.0,103.0,13.3,1505.2,323.9,-0.8,1.8,2470.409,13.29,0.011,264.8
2021-02-17T06:07:03,42.805,6.029,-0.01,-0.004,0.004,107.0,106.0,103.0,13.3,1505.2,327.0,-0.7,1.9,2470.373,13.29,0.01,248.2
2021-02-17T06:10:03,42.805,6.029,0.023,-0.01,0.023,107.0,105.0,105.0,13.3,1505.2,324.1,-0.8,1.8,2470.387,13.29,0.025,113.5
2021-02-17T06:13:03,42.805,6.029,0.005,0.0,0.017,106.0,105.0,102.0,13.3,1505.2,325.6,-0.8,1.9,2470.365,13.29,0.005,90.0
2021-02-17T06:16:03,42.805,6.029,-0.004,-0.012,-0.007,105.0,106.0,102.0,13.4,1505.2,324.3,-0.8,1.8,2470.401,13.29,0.012,198.4
2021-02-17T06:19:03,42.805,6.029,0.012,0.006,0.039,105.0,105.0,104.0,13.3,1505.2,324.3,-0.7,1.8,2470.418,13.29,0.013,63.4
2021-02-17T06:22:03,42.805,6.029,-0.002,-0.002,0.01,103.0,105.0,104.0,13.4,1505.2,324.1,-0.7,1.8,2470.395,13.29,0.002,225.0
2021-02-17T06:25:03,42.805,6.029,-0.002,-0.015,0.013,106.0,104.0,102.0,13.3,1505.2,323.6,-0.8,1.9,2470.412,13.29,0.015,187.6
2021-02-17T06:28:03,42.805,6.029,-0.025,-0.007,0.007,105.0,104.0,103.0,13.4,1505.2,326.5,-0.8,1.8,2470.429,13.29,0.025,254.4
2021-02-17T06:31:03,42.805,6.029,-0.001,0.021,0.04,104.0,103.0,104.0,13.3,1505.2,324.4,-0.8,1.8,2470.403,13.29,0.021,357.3
2021-02-17T06:34:03,42.805,6.029,-0.005,-0.006,0.0,103.0,104.0,102.0,13.4,1505.2,323.8,-0.8,1.8,2470.386,13.29,0.007,219.8
2021-02-17T06:37:03,42.805,6.029,-0.038,-0.012,0.018,103.0,103.0,102.0,13.3,1505.2,323.1,-0.8,1.8,2470.395,13.29,0.039,252.5
2021-02-17T06:40:03,42.805,6.029,0.006,-0.013,-0.003,105.0,103.0,102.0,13.3,1505.2,325.1,-0.7,1.8,2470.398,13.29,0.014,155.2
2021-02-17T06:43:03,42.805,6.029,-0.019,-0.009,0.03,105.0,105.0,101.0,13.3,1505.2,325.6,-0.8,1.8,2470.421,13.29,0.021,244.7
2021-02-17T06:46:03,42.805,6.029,-0.032,-0.014,0.003,104.0,104.0,103.0,13.3,1505.2,326.4,-0.7,1.8,2470.442,13.29,0.034,246.4
2021-02-17T06:49:03,42.805,6.029,-0.023,0.007,0.041,104.0,105.0,102.0,13.4,1505.2,328.1,-0.7,1.9,2470.435,13.29,0.024,286.9
2021-02-17T06:52:03,42.805,6.029,-0.034,0.006,0.002,104.0,103.0,103.0,13.3,1505.2,327.5,-0.8,1.8,2470.364,13.29,0.034,280.0
2021-02-17T06:55:03,42.805,6.029,-0.002,-0.011,0.012,103.0,105.0,102.0,13.4,1505.2,322.8,-0.8,1.8,2470.458,13.29,0.011,190.3
2021-02-17T06:58:03,42.805,6.029,-0.004,0.01,0.018,103.0,104.0,102.0,13.4,1505.2,325.9,-0.7,1.8,2470.418,13.29,0.01,338.2
2021-02-17T07:04:03,42.805,6.029,-0.002,0.005,0.026,104.0,104.0,103.0,13.3,1505.2,326.8,-0.8,1.8,2470.477,13.28,0.005,338.2
2021-02-17T07:07:03,42.805,6.029,-0.005,-0.01,-0.011,102.0,104.0,102.0,13.4,1505.2,323.6,-0.8,1.8,2470.428,13.28,0.011,206.6
2021-02-17T07:10:03,42.805,6.029,-0.016,-0.001,0.049,103.0,104.0,102.0,13.3,1505.2,326.7,-0.7,1.8,2470.453,13.28,0.016,266.4
2021-02-17T07:13:03,42.805,6.029,-0.023,0.017,0.019,105.0,105.0,102.0,13.3,1505.2,323.4,-0.8,1.8,2470.487,13.29,0.028,306.5
2021-02-17T07:16:03,42.805,6.029,0.009,-0.017,0.004,104.0,104.0,101.0,13.4,1505.2,326.3,-0.7,1.8,2470.486,13.29,0.019,152.1
2021-02-17T07:19:03,42.805,6.029,0.0,0.025,-0.006,103.0,104.0,102.0,13.4,1505.2,325.4,-0.7,1.8,2470.483,13.29,0.025,0.0
2021-02-17T07:22:03,42.805,6.029,-0.013,-0.001,-0.012,103.0,103.0,102.0,13.4,1505.2,327.2,-0.7,1.8,2470.453,13.29,0.013,265.6
2021-02-17T07:25:03,42.805,6.029,-0.007,0.016,-0.036,104.0,104.0,101.0,13.3,1505.2,327.0,-0.7,1.8,2470.456,13.29,0.017,336.4
2021-02-17T07:28:03,42.805,6.029,0.01,-0.002,0.013,104.0,104.0,105.0,13.4,1505.2,328.3,-0.7,1.9,2470.45,13.29,0.01,101.3
2021-02-17T07:31:03,42.805,6.029,-0.029,0.015,0.022,105.0,103.0,102.0,13.4,1505.2,326.1,-0.7,1.8,2470.436,13.29,0.032,297.4
2021-02-17T07:34:03,42.805,6.029,-0.03,-0.004,-0.004,103.0,104.0,101.0,13.4,1505.2,325.3,-0.7,1.8,2470.451,13.29,0.03,262.4
2021-02-17T07:37:03,42.805,6.029,-0.008,0.007,0.014,102.0,104.0,103.0,13.3,1505.2,324.5,-0.7,1.8,2470.446,13.29,0.01,311.2
2021-02-17T07:40:03,42.805,6.029,-0.008,0.013,0.021,104.0,103.0,101.0,13.4,1505.2,326.1,-0.8,1.8,2470.413,13.29,0.015,328.4
2021-02-17T07:43:03,42.805,6.029,-0.008,-0.007,0.03,104.0,102.0,102.0,13.4,1505.2,327.1,-0.8,1.8,2470.447,13.29,0.01,228.8
2021-02-17T07:46:03,42.805,6.029,-0.001,-0.009,0.013,105.0,103.0,102.0,13.3,1505.2,322.7,-0.7,1.8,2470.461,13.29,0.009,186.3
2021-02-17T07:49:03,42.805,6.029,-0.017,0.005,0.031,103.0,103.0,102.0,13.4,1505.2,326.3,-0.8,1.8,2470.462,13.29,0.017,286.4
2021-02-17T07:52:03,42.805,6.029,-0.001,0.009,0.041,103.0,103.0,102.0,13.3,1505.2,324.8,-0.8,1.9,2470.456,13.29,0.009,353.7
2021-02-17T07:55:03,42.805,6.029,-0.023,-0.013,0.01,103.0,103.0,103.0,13.4,1505.2,327.7,-0.8,1.9,2470.452,13.29,0.026,240.5
2021-02-17T07:58:03,42.805,6.029,-0.019,0.004,-0.006,103.0,104.0,101.0,13.4,1505.2,324.4,-0.7,1.8,2470.47,13.29,0.019,281.9
2021-02-17T08:04:03,42.805,6.029,0.012,-0.01,0.04,105.0,103.0,102.0,13.3,1505.2,324.2,-0.7,1.8,2470.478,13.28,0.015,129.8
2021-02-17T08:07:03,42.805,6.029,0.005,-0.005,0.009,104.0,104.0,102.0,13.4,1505.2,326.5,-0.7,1.8,2470.501,13.28,0.007,135.0
2021-02-17T08:10:03,42.805,6.029,-0.008,-0.012,0.014,103.0,103.0,102.0,13.3,1505.2,324.7,-0.8,1.8,2470.502,13.29,0.014,213.7
2021-02-17T08:13:03,42.805,6.029,-0.004,-0.022,0.003,104.0,102.0,103.0,13.4,1505.2,325.9,-0.8,1.8,2470.489,13.29,0.022,190.3
2021-02-17T08:16:03,42.805,6.029,-0.015,-0.006,0.004,105.0,103.0,102.0,13.4,1505.2,324.6,-0.8,1.8,2470.481,13.29,0.016,248.2
2021-02-17T08:19:03,42.805,6.029,0.0,0.008,0.025,105.0,101.0,102.0,13.4,1505.2,324.9,-0.7,1.9,2470.496,13.29,0.008,0.0
2021-02-17T08:22:03,42.805,6.029,0.002,-0.013,0.007,103.0,104.0,101.0,13.4,1505.2,324.2,-0.7,1.8,2470.521,13.29,0.013,171.3
2021-02-17T08:25:03,42.805,6.029,-0.018,-0.007,-0.018,104.0,103.0,106.0,13.4,1505.2,325.1,-0.8,1.8,2470.498,13.29,0.019,248.8
2021-02-17T08:28:03,42.805,6.029,-0.002,-0.001,0.022,103.0,103.0,101.0,13.3,1505.2,328.4,-0.7,1.8,2470.5,13.29,0.002,243.4
2021-02-17T08:31:03,42.805,6.029,-0.012,-0.006,0.021,102.0,104.0,101.0,13.3,1505.2,326.6,-0.8,1.8,2470.51,13.29,0.013,243.4
2021-02-17T08:34:03,42.805,6.029,-0.017,-0.008,0.014,102.0,103.0,103.0,13.4,1505.2,325.7,-0.8,1.8,2470.513,13.29,0.018,244.8
2021-02-17T08:37:03,42.805,6.029,-0.008,0.007,0.023,105.0,103.0,101.0,13.4,1505.2,327.4,-0.8,1.8,2470.503,13.29,0.01,311.2
2021-02-17T08:40:03,42.805,6.029,-0.013,0.023,0.042,104.0,102.0,102.0,13.4,1505.2,327.7,-0.7,1.8,2470.515,13.29,0.026,330.5
2021-02-17T08:43:03,42.805,6.029,-0.008,-0.01,0.014,103.0,103.0,102.0,13.3,1505.2,324.4,-0.8,1.8,2470.499,13.29,0.012,218.7
2021-02-17T08:46:03,42.805,6.029,-0.016,0.007,0.01,104.0,102.0,101.0,13.4,1505.2,325.5,-0.7,1.8,2470.491,13.29,0.017,293.6
2021-02-17T08:49:03,42.805,6.029,0.006,0.0,-0.001,103.0,103.0,101.0,13.3,1505.2,326.0,-0.7,1.8,2470.488,13.29,0.006,90.0
2021-02-17T08:52:03,42.805,6.029,0.002,-0.015,0.01,102.0,103.0,101.0,13.4,1505.2,324.5,-0.7,1.9,2470.512,13.29,0.015,172.4
2021-02-17T08:55:03,42.805,6.029,-0.004,-0.028,0.014,103.0,102.0,101.0,13.4,1505.2,327.0,-0.7,1.8,2470.523,13.29,0.028,188.1
2021-02-17T08:58:03,42.805,6.029,0.0,-0.009,0.032,102.0,102.0,101.0,13.4,1505.2,326.0,-0.8,1.8,2470.516,13.29,0.009,180.0
2021-02-17T09:04:03,42.805,6.029,0.0,-0.008,0.013,101.0,102.0,101.0,13.3,1505.2,324.4,-0.8,1.8,2470.519,13.28,0.008,180.0
2021-02-17T09:07:03,42.805,6.029,0.013,-0.015,0.039,100.0,100.0,101.0,13.4,1505.2,327.5,-0.7,1.8,2470.556,13.28,0.019,139.1
2021-02-17T09:10:03,42.805,6.029,-0.007,-0.011,0.021,101.0,102.0,101.0,13.3,1505.2,327.3,-0.8,1.8,2470.572,13.28,0.013,212.5
2021-02-17T09:13:03,42.805,6.029,-0.033,-0.02,0.005,102.0,101.0,102.0,13.4,1505.2,323.1,-0.8,1.9,2470.552,13.28,0.038,238.8
2021-02-17T09:16:03,42.805,6.029,-0.025,-0.019,0.016,103.0,104.0,101.0,13.4,1505.2,324.0,-0.8,1.8,2470.566,13.29,0.031,232.8
2021-02-17T09:19:03,42.805,6.029,-0.018,-0.023,-0.006,102.0,102.0,101.0,13.4,1505.2,325.9,-0.8,1.8,2470.564,13.29,0.029,218.0
2021-02-17T09:22:03,42.805,6.029,-0.025,-0.006,0.021,102.0,102.0,102.0,13.4,1505.2,326.6,-0.8,1.8,2470.566,13.29,0.025,256.5
2021-02-17T09:25:03,42.805,6.029,-0.003,-0.005,0.007,103.0,102.0,101.0,13.3,1505.2,326.4,-0.8,1.8,2470.538,13.29,0.005,211.0
2021-02-17T09:28:03,42.805,6.029,0.019,-0.03,0.049,102.0,102.0,101.0,13.4,1505.2,324.8,-0.8,1.8,2470.554,13.29,0.035,147.7
2021-02-17T09:31:03,42.805,6.029,-0.021,-0.014,0.034,101.0,103.0,101.0,13.4,1505.2,325.9,-0.7,1.9,2470.565,13.29,0.025,236.3
2021-02-17T09:34:03,42.805,6.029,0.0,-0.028,-0.014,101.0,103.0,102.0,13.4,1505.2,325.0,-0.8,1.9,2470.511,13.29,0.028,180.0
2021-02-17T09:37:03,42.805,6.029,0.006,-0.028,0.02,102.0,102.0,101.0,13.4,1505.2,324.7,-0.8,1.8,2470.524,13.29,0.028,167.9
2021-02-17T09:40:03,42.805,6.029,-0.009,-0.032,0.007,102.0,102.0,100.0,13.4,1505.2,324.1,-0.8,1.8,2470.556,13.29,0.033,195.7
2021-02-17T09:43:03,42.805,6.029,-0.013,-0.02,0.044,103.0,102.0,101.0,13.3,1505.2,327.8,-0.7,1.8,2470.554,13.29,0.023,213.0
2021-02-17T09:46:03,42.805,6.029,-0.006,-0.023,0.005,102.0,103.0,101.0,13.4,1505.2,326.9,-0.7,1.8,2470.537,13.29,0.023,194.6
2021-02-17T09:49:03,42.805,6.029,-0.02,0.0,0.02,102.0,101.0,101.0,13.3,1505.2,323.2,-0.8,1.8,2470.535,13.29,0.02,270.0
2021-02-17T09:52:03,42.805,6.029,-0.001,-0.006,0.05,101.0,103.0,101.0,13.4,1505.2,326.0,-0.8,1.8,2470.554,13.29,0.006,189.5
2021-02-17T09:55:03,42.805,6.029,-0.002,-0.014,0.023,101.0,103.0,102.0,13.3,1505.2,324.8,-0.8,1.8,2470.54,13.29,0.014,188.1